Time,TemperatureF,DewpointF,PressureIn,WindDirection,WindDirectionDegrees,WindSpeedMPH,WindSpeedGustMPH,Humidity,HourlyPrecipIn,Conditions,Clouds,dailyrainin,SoftwareType,DateUTC
2013-11-15 00:06:00,51.4,34.0,30.19,NW,315,12.0,14.0,51,0.00,,,0.00,weatherlink.com 1.10,2013-11-15 05:06:00,
2013-11-15 00:19:00,51.2,34.0,30.19,West,276,6.0,12.0,53,0.00,,,0.00,weatherlink.com 1.10,2013-11-15 05:19:00,
2013-11-15 00:34:00,51.2,34.0,30.18,WSW,238,6.0,14.0,52,0.00,,,0.00,weatherlink.com 1.10,2013-11-15 05:34:00,
2013-11-15 00:49:00,51.2,32.0,30.18,WSW,242,8.0,13.0,49,0.00,,,0.00,weatherlink.com 1.10,2013-11-15 05:49:00,
2013-11-15 01:06:00,51.4,32.0,30.19,WSW,244,5.0,13.0,48,0.00,,,0.00,weatherlink.com 1.10,2013-11-15 06:06:00,
2013-11-15 01:19:00,51.6,32.0,30.19,WSW,246,3.0,14.0,48,0.00,,,0.00,weatherlink.com 1.10,2013-11-15 06:19:00,
2013-11-15 01:34:00,51.4,32.0,30.19,WNW,287,5.0,12.0,48,0.00,,,0.00,weatherlink.com 1.10,2013-11-15 06:34:00,
2013-11-15 01:49:00,51.1,33.0,30.19,West,271,2.0,12.0,50,0.00,,,0.00,weatherlink.com 1.10,2013-11-15 06:49:00,
2013-11-15 02:06:00,51.0,33.0,30.20,WNW,285,5.0,12.0,51,0.00,,,0.00,weatherlink.com 1.10,2013-11-15 07:06:00,
2013-11-15 02:20:00,50.9,33.0,30.19,South,169,5.0,10.0,51,0.00,,,0.00,weatherlink.com 1.10,2013-11-15 07:20:00,
2013-11-15 02:35:00,50.8,33.0,30.20,West,271,6.0,13.0,51,0.00,,,0.00,weatherlink.com 1.10,2013-11-15 07:35:00,
2013-11-15 02:50:00,50.7,34.0,30.20,WNW,287,6.0,11.0,54,0.00,,,0.00,weatherlink.com 1.10,2013-11-15 07:50:00,
2013-11-15 03:05:00,50.9,35.0,30.19,West,275,1.0,14.0,54,0.00,,,0.00,weatherlink.com 1.10,2013-11-15 08:05:00,
2013-11-15 03:19:00,50.8,35.0,30.20,SW,228,3.0,10.0,55,0.00,,,0.00,weatherlink.com 1.10,2013-11-15 08:19:00,
2013-11-15 03:34:00,51.2,35.0,30.20,West,259,2.0,14.0,54,0.00,,,0.00,weatherlink.com 1.10,2013-11-15 08:34:00,
2013-11-15 03:49:00,50.7,36.0,30.20,West,271,7.0,8.0,57,0.00,,,0.00,weatherlink.com 1.10,2013-11-15 08:49:00,
2013-11-15 04:05:00,50.9,36.0,30.21,West,271,1.0,11.0,58,0.00,,,0.00,weatherlink.com 1.10,2013-11-15 09:05:00,
2013-11-15 04:19:00,51.0,37.0,30.21,West,274,4.0,11.0,59,0.00,,,0.00,weatherlink.com 1.10,2013-11-15 09:19:00,
2013-11-15 04:34:00,51.0,37.0,30.21,WNW,284,2.0,8.0,59,0.00,,,0.00,weatherlink.com 1.10,2013-11-15 09:34:00,
2013-11-15 04:49:00,51.0,36.0,30.21,WNW,284,4.0,10.0,58,0.00,,,0.00,weatherlink.com 1.10,2013-11-15 09:49:00,
2013-11-15 05:06:00,50.7,37.0,30.21,West,264,7.0,10.0,59,0.00,,,0.00,weatherlink.com 1.10,2013-11-15 10:06:00,
2013-11-15 05:20:00,50.9,37.0,30.21,West,269,8.0,12.0,59,0.00,,,0.00,weatherlink.com 1.10,2013-11-15 10:20:00,
2013-11-15 05:35:00,50.8,37.0,30.21,WNW,300,9.0,15.0,60,0.00,,,0.00,weatherlink.com 1.10,2013-11-15 10:35:00,
2013-11-15 05:50:00,50.5,37.0,30.22,NW,316,2.0,11.0,61,0.00,,,0.00,weatherlink.com 1.10,2013-11-15 10:50:00,
2013-11-15 06:06:00,50.3,38.0,30.23,West,276,3.0,8.0,63,0.00,,,0.00,weatherlink.com 1.10,2013-11-15 11:06:00,
2013-11-15 06:20:00,50.5,39.0,30.24,WSW,247,6.0,8.0,64,0.00,,,0.00,weatherlink.com 1.10,2013-11-15 11:20:00,
2013-11-15 06:35:00,50.5,38.0,30.25,West,275,1.0,8.0,63,0.00,,,0.00,weatherlink.com 1.10,2013-11-15 11:35:00,
2013-11-15 06:50:00,50.5,39.0,30.25,WSW,252,4.0,8.0,64,0.00,,,0.00,weatherlink.com 1.10,2013-11-15 11:50:00,
2013-11-15 07:05:00,50.3,39.0,30.24,SSE,161,1.0,5.0,66,0.00,,,0.00,weatherlink.com 1.10,2013-11-15 12:05:00,
2013-11-15 07:19:00,49.7,39.0,30.25,WSW,255,3.0,3.0,67,0.00,,,0.00,weatherlink.com 1.10,2013-11-15 12:19:00,
2013-11-15 07:34:00,49.9,39.0,30.25,West,259,4.0,5.0,67,0.00,,,0.00,weatherlink.com 1.10,2013-11-15 12:34:00,
2013-11-15 07:49:00,50.7,39.0,30.25,WSW,251,0.0,4.0,65,0.00,,,0.00,weatherlink.com 1.10,2013-11-15 12:49:00,
2013-11-15 08:05:00,51.7,39.0,30.25,West,259,2.0,8.0,63,0.00,,,0.00,weatherlink.com 1.10,2013-11-15 13:05:00,
2013-11-15 08:20:00,53.9,40.0,30.26,West,265,2.0,8.0,59,0.00,,,0.00,weatherlink.com 1.10,2013-11-15 13:20:00,
2013-11-15 08:35:00,54.9,39.0,30.26,South,186,4.0,8.0,55,0.00,,,0.00,weatherlink.com 1.10,2013-11-15 13:35:00,
2013-11-15 08:51:00,54.9,37.0,30.26,West,261,3.0,8.0,52,0.00,,,0.00,weatherlink.com 1.10,2013-11-15 13:51:00,
2013-11-15 09:06:00,55.5,38.0,30.25,NW,304,0.0,4.0,53,0.00,,,0.00,weatherlink.com 1.10,2013-11-15 14:06:00,
2013-11-15 09:21:00,55.5,37.0,30.25,South,183,2.0,8.0,51,0.00,,,0.00,weatherlink.com 1.10,2013-11-15 14:21:00,
2013-11-15 09:36:00,56.2,39.0,30.26,WSW,245,5.0,11.0,52,0.00,,,0.00,weatherlink.com 1.10,2013-11-15 14:36:00,
2013-11-15 09:51:00,56.7,41.0,30.25,SW,229,0.0,11.0,57,0.00,,,0.00,weatherlink.com 1.10,2013-11-15 14:51:00,
2013-11-15 10:05:00,56.5,43.0,30.26,SSW,194,1.0,10.0,61,0.00,,,0.00,weatherlink.com 1.10,2013-11-15 15:05:00,
2013-11-15 10:20:00,56.8,43.0,30.25,SSW,195,3.0,11.0,61,0.00,,,0.00,weatherlink.com 1.10,2013-11-15 15:20:00,
2013-11-15 10:36:00,58.7,44.0,30.25,SW,229,6.0,13.0,58,0.00,,,0.00,weatherlink.com 1.10,2013-11-15 15:36:00,
2013-11-15 10:51:00,59.5,44.0,30.24,WNW,284,3.0,8.0,57,0.00,,,0.00,weatherlink.com 1.10,2013-11-15 15:51:00,
2013-11-15 11:05:00,59.1,44.0,30.24,WNW,296,3.0,12.0,58,0.00,,,0.00,weatherlink.com 1.10,2013-11-15 16:05:00,
2013-11-15 11:20:00,59.8,44.0,30.24,WSW,244,6.0,15.0,57,0.00,,,0.00,weatherlink.com 1.10,2013-11-15 16:20:00,
2013-11-15 11:35:00,59.5,43.0,30.23,WSW,248,6.0,16.0,55,0.00,,,0.00,weatherlink.com 1.10,2013-11-15 16:35:00,
2013-11-15 11:50:00,58.6,44.0,30.23,SW,226,6.0,11.0,59,0.00,,,0.00,weatherlink.com 1.10,2013-11-15 16:50:00,
2013-11-15 12:05:00,58.4,45.0,30.22,SSW,202,3.0,11.0,61,0.00,,,0.00,weatherlink.com 1.10,2013-11-15 17:05:00,
2013-11-15 12:20:00,58.6,45.0,30.21,WSW,241,5.0,11.0,61,0.00,,,0.00,weatherlink.com 1.10,2013-11-15 17:20:00,
2013-11-15 12:35:00,59.3,46.0,30.21,SSE,167,2.0,11.0,62,0.00,,,0.00,weatherlink.com 1.10,2013-11-15 17:35:00,
2013-11-15 12:50:00,59.5,45.0,30.22,West,264,6.0,14.0,60,0.00,,,0.00,weatherlink.com 1.10,2013-11-15 17:50:00,
2013-11-15 13:06:00,59.3,46.0,30.22,WSW,243,0.0,16.0,62,0.00,,,0.00,weatherlink.com 1.10,2013-11-15 18:06:00,
2013-11-15 13:21:00,59.0,46.0,30.21,SSW,210,4.0,14.0,63,0.00,,,0.00,weatherlink.com 1.10,2013-11-15 18:21:00,
2013-11-15 13:36:00,58.6,46.0,30.21,West,259,15.0,15.0,63,0.00,,,0.00,weatherlink.com 1.10,2013-11-15 18:36:00,
2013-11-15 13:51:00,57.5,46.0,30.20,West,267,2.0,13.0,65,0.00,,,0.00,weatherlink.com 1.10,2013-11-15 18:51:00,
2013-11-15 14:06:00,57.4,46.0,30.20,WSW,250,4.0,12.0,66,0.00,,,0.00,weatherlink.com 1.10,2013-11-15 19:06:00,
2013-11-15 14:21:00,57.2,47.0,30.21,West,277,2.0,10.0,70,0.00,,,0.00,weatherlink.com 1.10,2013-11-15 19:21:00,
2013-11-15 14:36:00,56.9,48.0,30.20,SW,236,6.0,12.0,72,0.00,,,0.00,weatherlink.com 1.10,2013-11-15 19:36:00,
2013-11-15 14:51:00,56.6,48.0,30.20,West,265,3.0,16.0,73,0.00,,,0.00,weatherlink.com 1.10,2013-11-15 19:51:00,
2013-11-15 15:06:00,56.2,48.0,30.20,West,262,4.0,16.0,75,0.00,,,0.00,weatherlink.com 1.10,2013-11-15 20:06:00,
2013-11-15 15:21:00,55.9,48.0,30.21,West,274,6.0,11.0,76,0.00,,,0.00,weatherlink.com 1.10,2013-11-15 20:21:00,
2013-11-15 15:36:00,55.4,49.0,30.21,SW,228,2.0,11.0,78,0.00,,,0.00,weatherlink.com 1.10,2013-11-15 20:36:00,
2013-11-15 15:51:00,55.0,49.0,30.21,SSW,200,1.0,8.0,79,0.00,,,0.00,weatherlink.com 1.10,2013-11-15 20:51:00,
2013-11-15 16:22:00,54.0,49.0,30.20,SW,228,1.0,5.0,82,0.00,,,0.00,weatherlink.com 1.10,2013-11-15 21:22:00,
2013-11-15 16:37:00,53.3,48.0,30.21,WNW,289,1.0,4.0,83,0.00,,,0.00,weatherlink.com 1.10,2013-11-15 21:37:00,
2013-11-15 16:52:00,53.0,48.0,30.21,SSW,211,0.0,6.0,84,0.00,,,0.00,weatherlink.com 1.10,2013-11-15 21:52:00,
2013-11-15 17:07:00,52.7,48.0,30.21,South,176,1.0,6.0,85,0.00,,,0.00,weatherlink.com 1.10,2013-11-15 22:07:00,
2013-11-15 17:22:00,52.6,49.0,30.21,South,177,0.0,5.0,86,0.00,,,0.00,weatherlink.com 1.10,2013-11-15 22:22:00,
2013-11-15 17:37:00,52.3,48.0,30.21,SW,216,0.0,5.0,86,0.00,,,0.00,weatherlink.com 1.10,2013-11-15 22:37:00,
2013-11-15 17:52:00,51.9,48.0,30.21,SW,217,0.0,3.0,87,0.00,,,0.00,weatherlink.com 1.10,2013-11-15 22:52:00,
2013-11-15 18:06:00,51.8,48.0,30.21,SSW,202,0.0,4.0,86,0.00,,,0.00,weatherlink.com 1.10,2013-11-15 23:06:00,
2013-11-15 18:22:00,51.9,47.0,30.21,South,183,0.0,5.0,83,0.00,,,0.00,weatherlink.com 1.10,2013-11-15 23:22:00,
2013-11-15 18:37:00,51.9,47.0,30.21,SSW,200,2.0,4.0,83,0.00,,,0.00,weatherlink.com 1.10,2013-11-15 23:37:00,
2013-11-15 18:52:00,52.3,47.0,30.21,South,187,3.0,6.0,83,0.00,,,0.00,weatherlink.com 1.10,2013-11-15 23:52:00,
2013-11-15 19:07:00,52.3,47.0,30.22,SSE,166,0.0,3.0,82,0.00,,,0.00,weatherlink.com 1.10,2013-11-16 00:07:00,
2013-11-15 19:22:00,52.7,47.0,30.22,SSW,200,1.0,4.0,82,0.00,,,0.00,weatherlink.com 1.10,2013-11-16 00:22:00,
2013-11-15 19:37:00,52.9,47.0,30.21,SW,215,2.0,6.0,81,0.00,,,0.00,weatherlink.com 1.10,2013-11-16 00:37:00,
2013-11-15 19:52:00,52.8,47.0,30.21,SSW,198,1.0,3.0,81,0.00,,,0.00,weatherlink.com 1.10,2013-11-16 00:52:00,
2013-11-15 20:07:00,52.5,47.0,30.21,South,186,2.0,3.0,82,0.00,,,0.00,weatherlink.com 1.10,2013-11-16 01:07:00,
2013-11-15 20:22:00,52.3,47.0,30.21,South,185,0.0,4.0,82,0.00,,,0.00,weatherlink.com 1.10,2013-11-16 01:22:00,
2013-11-15 20:37:00,52.0,47.0,30.21,SSW,200,0.0,4.0,82,0.00,,,0.00,weatherlink.com 1.10,2013-11-16 01:37:00,
2013-11-15 20:52:00,52.0,46.0,30.21,SSW,210,1.0,5.0,81,0.00,,,0.00,weatherlink.com 1.10,2013-11-16 01:52:00,
2013-11-15 21:06:00,51.5,46.0,30.22,SSW,210,0.0,5.0,82,0.00,,,0.00,weatherlink.com 1.10,2013-11-16 02:06:00,
2013-11-15 21:21:00,51.3,46.0,30.23,SSW,212,0.0,5.0,83,0.00,,,0.00,weatherlink.com 1.10,2013-11-16 02:21:00,
2013-11-15 21:36:00,51.6,46.0,30.23,WSW,252,0.0,6.0,82,0.00,,,0.00,weatherlink.com 1.10,2013-11-16 02:36:00,
2013-11-15 21:51:00,51.8,47.0,30.23,SSE,162,0.0,5.0,82,0.00,,,0.00,weatherlink.com 1.10,2013-11-16 02:51:00,
2013-11-15 22:06:00,52.2,48.0,30.22,WSW,257,3.0,8.0,84,0.00,,,0.00,weatherlink.com 1.10,2013-11-16 03:06:00,
2013-11-15 22:21:00,52.1,48.0,30.23,WSW,238,0.0,6.0,85,0.00,,,0.00,weatherlink.com 1.10,2013-11-16 03:21:00,
2013-11-15 22:36:00,52.2,48.0,30.22,West,271,2.0,10.0,86,0.00,,,0.00,weatherlink.com 1.10,2013-11-16 03:36:00,
2013-11-15 22:51:00,51.9,48.0,30.23,West,281,6.0,6.0,85,0.00,,,0.00,weatherlink.com 1.10,2013-11-16 03:51:00,
2013-11-15 23:06:00,51.4,47.0,30.23,SW,223,0.0,4.0,86,0.00,,,0.00,weatherlink.com 1.10,2013-11-16 04:06:00,
2013-11-15 23:21:00,51.0,47.0,30.23,WSW,247,1.0,5.0,85,0.00,,,0.00,weatherlink.com 1.10,2013-11-16 04:21:00,
2013-11-15 23:36:00,50.7,46.0,30.24,West,266,0.0,4.0,84,0.00,,,0.00,weatherlink.com 1.10,2013-11-16 04:36:00,
2013-11-15 23:51:00,49.9,45.0,30.25,West,266,0.0,1.0,84,0.00,,,0.00,weatherlink.com 1.10,2013-11-16 04:51:00,